ACA644 CYYZ-CYQM

Flight info

Callsign ACA644
Flight time 1h 31m
Altitude 35000
Route DEDKI5 OLABA Q951 TALNO Q929 TOXAL DCT DANOL Q951 PUXOP
Aircraft B38M/M-SBDE3GHIRWYZ/LB1

Departure

Time 2026-05-08 19:30
Airport Toronto Pearson International Airport (CYYZ)

Arrival

Time 2026-05-08 21:02
Airport Greater Moncton Roméo LeBlanc International Airport (CYQM)
Time Latitude Longitude Altitude Speed Heading
2026-05-08 19:28 43.69419 -79.63319 568 ft 0 kts 32°
2026-05-08 19:28 43.69420 -79.63318 568 ft 1 kts 31°
2026-05-08 19:29 43.69446 -79.63311 570 ft 8 kts 358°
2026-05-08 19:29 43.69492 -79.63374 566 ft 11 kts 269°
2026-05-08 19:29 43.69440 -79.63473 569 ft 16 kts 226°
2026-05-08 19:29 43.69312 -79.63656 565 ft 52 kts 226°
2026-05-08 19:30 43.68884 -79.64278 570 ft 119 kts 226°
2026-05-08 19:30 43.68190 -79.65291 601 ft 166 kts 226°
2026-05-08 19:30 43.67421 -79.66512 1171 ft 173 kts 228°
2026-05-08 19:30 43.66630 -79.67814 1864 ft 178 kts 225°
2026-05-08 19:31 43.65831 -79.69178 2618 ft 183 kts 228°
2026-05-08 19:31 43.65033 -79.70545 3470 ft 182 kts 229°
2026-05-08 19:31 43.64136 -79.71752 4249 ft 182 kts 210°
2026-05-08 19:31 43.62863 -79.72200 4600 ft 201 kts 178°
2026-05-08 19:32 43.61478 -79.71552 4642 ft 228 kts 148°
2026-05-08 19:32 43.60261 -79.69951 5116 ft 247 kts 135°
2026-05-08 19:32 43.59060 -79.68268 5895 ft 254 kts 140°
2026-05-08 19:32 43.57617 -79.66679 6429 ft 271 kts 144°
2026-05-08 19:33 43.56088 -79.65050 7051 ft 282 kts 144°
2026-05-08 19:33 43.54539 -79.63380 7907 ft 284 kts 144°
2026-05-08 19:33 43.52968 -79.61678 8652 ft 289 kts 144°
2026-05-08 19:33 43.51616 -79.59678 9383 ft 297 kts 121°
2026-05-08 19:34 43.50965 -79.56945 10091 ft 304 kts 95°
2026-05-08 19:34 43.51151 -79.53983 10495 ft 321 kts 74°
2026-05-08 19:34 43.51752 -79.50929 10863 ft 338 kts 73°
2026-05-08 19:34 43.52367 -79.47732 11319 ft 352 kts 73°
2026-05-08 19:35 43.52998 -79.44449 12053 ft 356 kts 73°
2026-05-08 19:35 43.53704 -79.41159 12754 ft 361 kts 70°
2026-05-08 19:35 43.54465 -79.37828 13472 ft 367 kts 70°
2026-05-08 19:35 43.55228 -79.34442 14236 ft 371 kts 70°
2026-05-08 19:36 43.55995 -79.31020 14977 ft 376 kts 69°
2026-05-08 19:36 43.56769 -79.27550 15666 ft 382 kts 69°
2026-05-08 19:36 43.57555 -79.24025 16386 ft 386 kts 69°
2026-05-08 19:36 43.58347 -79.20465 17070 ft 391 kts 69°
2026-05-08 19:37 43.59150 -79.16847 17727 ft 396 kts 69°
2026-05-08 19:37 43.59959 -79.13195 18383 ft 400 kts 69°
2026-05-08 19:37 43.60777 -79.09496 18982 ft 405 kts 69°
2026-05-08 19:37 43.61583 -79.05844 19542 ft 410 kts 69°
2026-05-08 19:38 43.62419 -79.02053 20132 ft 414 kts 68°
2026-05-08 19:38 43.63262 -78.98218 20682 ft 419 kts 68°
2026-05-08 19:38 43.64100 -78.94403 21238 ft 423 kts 69°
2026-05-08 19:38 43.64958 -78.90492 21763 ft 427 kts 68°
2026-05-08 19:39 43.65820 -78.86551 22293 ft 432 kts 69°
2026-05-08 19:39 43.66693 -78.82558 22824 ft 436 kts 68°
2026-05-08 19:39 43.67569 -78.78536 23338 ft 440 kts 69°
2026-05-08 19:39 43.68456 -78.74465 23823 ft 444 kts 69°
2026-05-08 19:40 43.69490 -78.70453 24321 ft 443 kts 60°
2026-05-08 19:40 43.70766 -78.66551 24809 ft 447 kts 60°
2026-05-08 19:40 43.72046 -78.62616 25289 ft 450 kts 60°
2026-05-08 19:40 43.73338 -78.58653 25789 ft 453 kts 60°
2026-05-08 19:41 43.74635 -78.54674 26257 ft 456 kts 60°
2026-05-08 19:41 43.75942 -78.50659 26707 ft 459 kts 60°
2026-05-08 19:41 43.77256 -78.46617 27165 ft 462 kts 60°
2026-05-08 19:41 43.78575 -78.42550 27576 ft 465 kts 60°
2026-05-08 19:42 43.79906 -78.38442 27977 ft 469 kts 60°
2026-05-08 19:42 43.81244 -78.34305 28388 ft 471 kts 60°
2026-05-08 19:42 43.82585 -78.30151 28784 ft 474 kts 60°
2026-05-08 19:42 43.83936 -78.25964 29164 ft 477 kts 60°
2026-05-08 19:43 43.85291 -78.21753 29550 ft 480 kts 60°
2026-05-08 19:43 43.86632 -78.17581 29904 ft 482 kts 60°
2026-05-08 19:43 43.88004 -78.13307 30250 ft 485 kts 60°
2026-05-08 19:43 43.89378 -78.09016 30591 ft 488 kts 60°
2026-05-08 19:44 43.90758 -78.04704 30939 ft 490 kts 60°
2026-05-08 19:44 43.92148 -78.00349 31279 ft 493 kts 60°
2026-05-08 19:44 43.93535 -77.95998 31631 ft 495 kts 60°
2026-05-08 19:44 43.94929 -77.91618 31954 ft 497 kts 60°
2026-05-08 19:45 43.96333 -77.87199 32268 ft 500 kts 60°
2026-05-08 19:45 43.97738 -77.82771 32580 ft 502 kts 60°
2026-05-08 19:45 43.99147 -77.78320 32880 ft 505 kts 60°
2026-05-08 19:45 44.00563 -77.73843 33187 ft 507 kts 60°
2026-05-08 19:46 44.01981 -77.69349 33474 ft 509 kts 60°
2026-05-08 19:46 44.03400 -77.64843 33857 ft 509 kts 60°
2026-05-08 19:46 44.06210 -77.55902 34666 ft 508 kts 61°
2026-05-08 19:47 44.07625 -77.51387 34930 ft 510 kts 61°
2026-05-08 19:47 44.09037 -77.46872 34955 ft 508 kts 61°
2026-05-08 19:47 44.11848 -77.37866 34933 ft 506 kts 61°
2026-05-08 19:48 44.14646 -77.28869 34932 ft 506 kts 62°
2026-05-08 19:48 44.17434 -77.19873 34934 ft 506 kts 62°
2026-05-08 19:49 44.20219 -77.10855 34932 ft 506 kts 62°
2026-05-08 19:49 44.22998 -77.01825 34935 ft 506 kts 62°
2026-05-08 19:50 44.25767 -76.92795 34938 ft 506 kts 62°
2026-05-08 19:50 44.28527 -76.83763 34933 ft 506 kts 62°
2026-05-08 19:51 44.31281 -76.74721 34938 ft 506 kts 62°
2026-05-08 19:51 44.34030 -76.65662 34933 ft 507 kts 62°
2026-05-08 19:52 44.36772 -76.56592 34934 ft 507 kts 62°
2026-05-08 19:52 44.39507 -76.47515 34937 ft 506 kts 62°
2026-05-08 19:53 44.42236 -76.38434 34941 ft 506 kts 63°
2026-05-08 19:53 44.44962 -76.29331 34923 ft 507 kts 63°
2026-05-08 19:54 44.47690 -76.20272 34925 ft 507 kts 62°
2026-05-08 19:54 44.50540 -76.11238 34923 ft 507 kts 62°
2026-05-08 19:55 44.53374 -76.02191 34915 ft 507 kts 62°
2026-05-08 19:55 44.56201 -75.93130 34900 ft 507 kts 62°
2026-05-08 19:56 44.59015 -75.84083 34894 ft 506 kts 62°
2026-05-08 19:56 44.61823 -75.75023 34888 ft 506 kts 62°
2026-05-08 19:57 44.64608 -75.65950 34883 ft 507 kts 64°
2026-05-08 19:57 44.67178 -75.56711 34880 ft 508 kts 64°
2026-05-08 19:58 44.69279 -75.49014 34878 ft 507 kts 65°
2026-05-08 19:58 44.71794 -75.39746 34882 ft 507 kts 65°
2026-05-08 19:59 44.74482 -75.30617 34879 ft 505 kts 63°
2026-05-08 19:59 44.77167 -75.21470 34884 ft 504 kts 64°
2026-05-08 20:00 44.79835 -75.12335 34889 ft 504 kts 64°
2026-05-08 20:00 44.82495 -75.03194 34895 ft 504 kts 64°
2026-05-08 20:01 44.85149 -74.94041 34890 ft 504 kts 64°
2026-05-08 20:01 44.87775 -74.84952 34888 ft 504 kts 64°
2026-05-08 20:02 44.90412 -74.75793 34888 ft 504 kts 64°
2026-05-08 20:02 44.92621 -74.66379 34888 ft 506 kts 70°
2026-05-08 20:03 44.94698 -74.56904 34888 ft 505 kts 70°
2026-05-08 20:03 44.96797 -74.47428 34883 ft 506 kts 70°
2026-05-08 20:04 44.98889 -74.37953 34878 ft 505 kts 70°
2026-05-08 20:04 45.00692 -74.28337 34881 ft 506 kts 72°
2026-05-08 20:05 45.02497 -74.18700 34878 ft 506 kts 72°
2026-05-08 20:05 45.04293 -74.09086 34869 ft 506 kts 73°
2026-05-08 20:06 45.06070 -73.99529 34869 ft 506 kts 73°
2026-05-08 20:06 45.07714 -73.89876 34855 ft 505 kts 83°
2026-05-08 20:07 45.08121 -73.79942 34865 ft 506 kts 85°
2026-05-08 20:07 45.08522 -73.69999 34869 ft 506 kts 86°
2026-05-08 20:08 45.08907 -73.60059 34868 ft 505 kts 86°
2026-05-08 20:08 45.09210 -73.51470 34869 ft 505 kts 86°
2026-05-08 20:09 45.09550 -73.41531 34877 ft 505 kts 86°
2026-05-08 20:09 45.09882 -73.31596 34886 ft 505 kts 86°
2026-05-08 20:10 45.10205 -73.21654 34887 ft 505 kts 86°
2026-05-08 20:10 45.10519 -73.11730 34888 ft 504 kts 86°
2026-05-08 20:11 45.10823 -73.01834 34890 ft 504 kts 87°
2026-05-08 20:11 45.11121 -72.91897 34887 ft 504 kts 87°
2026-05-08 20:12 45.11408 -72.81981 34884 ft 504 kts 87°
2026-05-08 20:12 45.11688 -72.72062 34889 ft 504 kts 87°
2026-05-08 20:13 45.11959 -72.62142 34887 ft 504 kts 87°
2026-05-08 20:13 45.12220 -72.52242 34888 ft 503 kts 87°
2026-05-08 20:14 45.12474 -72.42340 34887 ft 503 kts 87°
2026-05-08 20:14 45.12717 -72.32495 34889 ft 502 kts 88°
2026-05-08 20:15 45.12952 -72.22620 34889 ft 502 kts 88°
2026-05-08 20:15 45.13179 -72.12729 34888 ft 502 kts 88°
2026-05-08 20:16 45.13398 -72.02854 34885 ft 501 kts 88°
2026-05-08 20:16 45.13606 -71.92989 34880 ft 501 kts 88°
2026-05-08 20:17 45.13808 -71.83139 34868 ft 499 kts 88°
2026-05-08 20:17 45.14001 -71.73306 34871 ft 500 kts 88°
2026-05-08 20:18 45.14188 -71.63466 34862 ft 500 kts 89°
2026-05-08 20:18 45.15034 -71.53737 34871 ft 498 kts 76°
2026-05-08 20:19 45.16588 -71.44161 34859 ft 499 kts 76°
2026-05-08 20:19 45.18146 -71.34579 34848 ft 499 kts 76°
2026-05-08 20:20 45.19699 -71.24987 34849 ft 499 kts 76°
2026-05-08 20:20 45.21239 -71.15429 34850 ft 499 kts 76°
2026-05-08 20:21 45.22778 -71.05814 34851 ft 499 kts 77°
2026-05-08 20:21 45.24309 -70.96200 34855 ft 499 kts 77°
2026-05-08 20:22 45.25829 -70.86594 34851 ft 499 kts 77°
2026-05-08 20:22 45.27086 -70.78615 34839 ft 498 kts 77°
2026-05-08 20:23 45.28843 -70.67386 34844 ft 499 kts 77°
2026-05-08 20:23 45.30339 -70.57772 34839 ft 497 kts 77°
2026-05-08 20:24 45.31824 -70.48160 34839 ft 498 kts 78°
2026-05-08 20:24 45.33300 -70.38558 34832 ft 497 kts 78°
2026-05-08 20:25 45.34768 -70.28953 34815 ft 497 kts 78°
2026-05-08 20:25 45.36224 -70.19364 34822 ft 496 kts 78°
2026-05-08 20:26 45.37662 -70.09832 34810 ft 496 kts 78°
2026-05-08 20:26 45.39102 -70.00236 34810 ft 495 kts 78°
2026-05-08 20:27 45.40529 -69.90663 34794 ft 494 kts 78°
2026-05-08 20:27 45.41950 -69.81079 34785 ft 495 kts 78°
2026-05-08 20:28 45.43361 -69.71498 34785 ft 495 kts 79°
2026-05-08 20:28 45.44765 -69.61906 34775 ft 495 kts 79°
2026-05-08 20:29 45.46162 -69.52305 34777 ft 496 kts 79°
2026-05-08 20:29 45.47553 -69.42684 34776 ft 495 kts 79°
2026-05-08 20:30 45.48936 -69.33057 34775 ft 496 kts 79°
2026-05-08 20:30 45.50312 -69.23414 34786 ft 496 kts 79°
2026-05-08 20:31 45.51681 -69.13763 34787 ft 496 kts 79°
2026-05-08 20:31 45.53043 -69.04094 34791 ft 496 kts 79°
2026-05-08 20:32 45.54394 -68.94447 34797 ft 496 kts 80°
2026-05-08 20:32 45.55729 -68.84849 34804 ft 496 kts 80°
2026-05-08 20:33 45.57064 -68.75191 34806 ft 496 kts 80°
2026-05-08 20:33 45.58390 -68.65531 34805 ft 495 kts 80°
2026-05-08 20:34 45.59707 -68.55879 34799 ft 495 kts 80°
2026-05-08 20:35 45.61664 -68.41405 34807 ft 494 kts 81°
2026-05-08 20:35 45.62956 -68.31777 34804 ft 493 kts 81°
2026-05-08 20:36 45.64237 -68.22158 34797 ft 492 kts 81°
2026-05-08 20:36 45.65510 -68.12548 34795 ft 492 kts 81°
2026-05-08 20:37 45.66776 -68.02939 34786 ft 492 kts 81°
2026-05-08 20:37 45.68036 -67.93337 34787 ft 492 kts 81°
2026-05-08 20:38 45.69282 -67.83732 34778 ft 491 kts 81°
2026-05-08 20:38 45.70970 -67.74238 34780 ft 493 kts 76°
2026-05-08 20:39 45.72461 -67.66366 34773 ft 493 kts 77°
2026-05-08 20:39 45.74221 -67.56888 34219 ft 490 kts 77°
2026-05-08 20:39 45.75101 -67.52126 33057 ft 499 kts 77°
2026-05-08 20:40 45.75993 -67.47288 32019 ft 505 kts 77°
2026-05-08 20:40 45.76883 -67.42443 31368 ft 500 kts 76°
2026-05-08 20:40 45.77757 -67.37673 30914 ft 491 kts 76°
2026-05-08 20:40 45.78616 -67.32975 30365 ft 485 kts 76°
2026-05-08 20:41 45.79465 -67.28319 29717 ft 482 kts 76°
2026-05-08 20:41 45.80308 -67.23683 29083 ft 478 kts 76°
2026-05-08 20:41 45.81143 -67.19084 28470 ft 474 kts 76°
2026-05-08 20:41 45.81969 -67.14519 27865 ft 470 kts 76°
2026-05-08 20:42 45.82786 -67.09993 27265 ft 466 kts 76°
2026-05-08 20:42 45.83593 -67.05511 26659 ft 462 kts 76°
2026-05-08 20:42 45.84393 -67.01058 26071 ft 458 kts 76°
2026-05-08 20:42 45.85183 -66.96652 25484 ft 455 kts 76°
2026-05-08 20:43 45.85966 -66.92272 24902 ft 451 kts 76°
2026-05-08 20:43 45.86738 -66.87941 24315 ft 447 kts 76°
2026-05-08 20:43 45.87505 -66.83637 23770 ft 443 kts 76°
2026-05-08 20:43 45.88260 -66.79379 23220 ft 439 kts 76°
2026-05-08 20:44 45.89008 -66.75151 22681 ft 434 kts 76°
2026-05-08 20:44 45.89749 -66.70957 22154 ft 430 kts 76°
2026-05-08 20:44 45.90472 -66.66855 21638 ft 426 kts 76°
2026-05-08 20:44 45.91194 -66.62749 21122 ft 422 kts 76°
2026-05-08 20:45 45.91908 -66.58680 20627 ft 418 kts 76°
2026-05-08 20:45 45.92615 -66.54642 20139 ft 414 kts 76°
2026-05-08 20:45 45.93315 -66.50645 19661 ft 410 kts 77°
2026-05-08 20:45 45.94004 -66.46699 19200 ft 403 kts 77°
2026-05-08 20:46 45.94564 -66.42819 18668 ft 391 kts 86°
2026-05-08 20:46 45.94778 -66.38965 18248 ft 385 kts 86°
2026-05-08 20:46 45.95007 -66.35145 17811 ft 382 kts 86°
2026-05-08 20:46 45.95233 -66.31356 17513 ft 376 kts 86°
2026-05-08 20:47 45.95453 -66.27649 17206 ft 369 kts 86°
2026-05-08 20:47 45.95670 -66.23984 16815 ft 366 kts 86°
2026-05-08 20:47 45.95884 -66.20346 16407 ft 365 kts 86°
2026-05-08 20:47 45.96094 -66.16758 15994 ft 364 kts 86°
2026-05-08 20:48 45.96305 -66.13133 15578 ft 363 kts 86°
2026-05-08 20:48 45.96513 -66.09525 15161 ft 362 kts 86°
2026-05-08 20:48 45.96721 -66.05920 14742 ft 361 kts 86°
2026-05-08 20:48 45.96926 -66.02327 14330 ft 360 kts 86°
2026-05-08 20:49 45.97130 -65.98750 13918 ft 359 kts 86°
2026-05-08 20:49 45.97332 -65.95170 13500 ft 358 kts 86°
2026-05-08 20:49 45.97533 -65.91607 13082 ft 357 kts 85°
2026-05-08 20:49 45.97731 -65.88059 12672 ft 356 kts 85°
2026-05-08 20:50 45.97928 -65.84520 12265 ft 355 kts 85°
2026-05-08 20:50 45.98123 -65.80983 11843 ft 354 kts 85°
2026-05-08 20:50 45.98317 -65.77456 11429 ft 353 kts 85°
2026-05-08 20:50 45.98509 -65.73941 11013 ft 352 kts 85°
2026-05-08 20:51 45.98699 -65.70449 10770 ft 346 kts 85°
2026-05-08 20:51 45.98884 -65.67027 10611 ft 339 kts 85°
2026-05-08 20:51 45.99063 -65.63688 10446 ft 333 kts 85°
2026-05-08 20:51 45.99239 -65.60388 10285 ft 328 kts 85°
2026-05-08 20:52 45.99412 -65.57145 10123 ft 323 kts 85°
2026-05-08 20:52 45.99580 -65.53969 9851 ft 323 kts 85°
2026-05-08 20:52 45.99751 -65.50734 9481 ft 326 kts 85°
2026-05-08 20:52 45.99921 -65.47461 9114 ft 329 kts 85°
2026-05-08 20:53 46.00093 -65.44165 8754 ft 331 kts 85°
2026-05-08 20:53 46.00265 -65.40845 8393 ft 333 kts 85°
2026-05-08 20:53 46.00436 -65.37516 8028 ft 334 kts 85°
2026-05-08 20:53 46.00607 -65.34179 7660 ft 334 kts 85°
2026-05-08 20:54 46.00777 -65.30841 7293 ft 335 kts 85°
2026-05-08 20:54 46.00948 -65.27451 6930 ft 336 kts 85°
2026-05-08 20:54 46.01115 -65.24126 6550 ft 328 kts 85°
2026-05-08 20:54 46.01276 -65.20901 6199 ft 318 kts 85°
2026-05-08 20:55 46.01430 -65.17808 5869 ft 310 kts 86°
2026-05-08 20:55 46.01582 -65.14728 5647 ft 299 kts 85°
2026-05-08 20:55 46.01726 -65.11830 5518 ft 290 kts 85°
2026-05-08 20:55 46.01867 -65.08975 5358 ft 282 kts 86°
2026-05-08 20:56 46.02003 -65.06188 5224 ft 276 kts 85°
2026-05-08 20:56 46.02127 -65.03639 5102 ft 264 kts 86°
2026-05-08 20:56 46.02245 -65.01087 4923 ft 251 kts 86°
2026-05-08 20:56 46.02362 -64.98624 4642 ft 243 kts 85°
2026-05-08 20:57 46.02477 -64.96238 4319 ft 237 kts 85°
2026-05-08 20:57 46.02589 -64.93899 3977 ft 232 kts 85°
2026-05-08 20:57 46.02698 -64.91603 3669 ft 227 kts 85°
2026-05-08 20:57 46.02806 -64.89337 3381 ft 222 kts 85°
2026-05-08 20:58 46.02907 -64.87177 3114 ft 216 kts 85°
2026-05-08 20:58 46.03005 -64.85073 2969 ft 205 kts 85°
2026-05-08 20:58 46.03104 -64.83100 2848 ft 193 kts 83°
2026-05-08 20:58 46.03301 -64.81204 2252 ft 193 kts 81°
2026-05-08 20:59 46.03584 -64.79292 1466 ft 195 kts 78°
2026-05-08 20:59 46.03976 -64.77544 1217 ft 170 kts 65°
2026-05-08 20:59 46.04676 -64.76307 1169 ft 150 kts 39°
2026-05-08 20:59 46.05544 -64.75553 1134 ft 142 kts 29°
2026-05-08 21:00 46.06391 -64.74834 1023 ft 142 kts 31°
2026-05-08 21:00 46.07146 -64.73946 919 ft 138 kts 42°
2026-05-08 21:00 46.07862 -64.73001 878 ft 140 kts 41°
2026-05-08 21:00 46.08573 -64.72068 776 ft 137 kts 41°
2026-05-08 21:01 46.09286 -64.71162 623 ft 134 kts 40°
2026-05-08 21:01 46.09972 -64.70258 420 ft 133 kts 43°
2026-05-08 21:01 46.10636 -64.69376 260 ft 126 kts 41°
2026-05-08 21:01 46.11257 -64.68563 236 ft 104 kts 42°
2026-05-08 21:02 46.11609 -64.68100 237 ft 38 kts 43°
2026-05-08 21:02 46.11767 -64.67891 236 ft 16 kts 42°
2026-05-08 21:02 46.11858 -64.67858 234 ft 14 kts 322°
2026-05-08 21:02 46.11913 -64.67943 237 ft 13 kts 305°
2026-05-08 21:03 46.11884 -64.68060 236 ft 15 kts 226°
2026-05-08 21:03 46.11799 -64.68173 234 ft 18 kts 221°
2026-05-08 21:03 46.11704 -64.68298 237 ft 19 kts 222°
2026-05-08 21:03 46.11606 -64.68427 238 ft 12 kts 222°
2026-05-08 21:04 46.11548 -64.68504 238 ft 9 kts 224°
2026-05-08 21:04 46.11547 -64.68571 236 ft 7 kts 305°
2026-05-08 21:04 46.11553 -64.68632 237 ft 5 kts 249°
2026-05-08 21:04 46.11561 -64.68683 239 ft 5 kts 307°
2026-05-08 21:05 46.11584 -64.68718 235 ft 3 kts 313°
2026-05-08 21:05 46.11587 -64.68723 235 ft 0 kts 313°